This is the latest recevied weather packets stored in our database for station/object CE7LGA-10. If no packets are shown the sender has not sent any weather packets the latest 10 day(s).
| Time | Temp. | Humidity | Pressure | Rain* | Wind** | Luminosity | Snow |
|---|---|---|---|---|---|---|---|
| 1788115103 | 21.11° C | 53% | 1001.1 hPa | - | - | - | - |
| 1788114203 | 20.56° C | 54% | 1001 hPa | - | - | - | - |
| 1788113303 | 20.56° C | 57% | 1001.2 hPa | - | - | - | - |
| 1788112403 | 17.78° C | 60% | 1001.2 hPa | - | - | - | - |
| 1788111503 | 15° C | 63% | 1001.1 hPa | - | - | - | - |
| 1788110603 | 15° C | 61% | 1001 hPa | - | - | - | - |
| 1788109703 | 15.56° C | 62% | 1001.3 hPa | - | - | - | - |
| 1788108802 | 15.56° C | 62% | 1001.4 hPa | - | - | - | - |
| 1788107906 | 15° C | 63% | 1001.7 hPa | - | - | - | - |
| 1788107006 | 15° C | 62% | 1001.8 hPa | - | - | - | - |
| 1788106106 | 15.56° C | 61% | 1001.8 hPa | - | - | - | - |
| 1788105205 | 15° C | 61% | 1002 hPa | - | - | - | - |
| 1788104305 | 14.44° C | 60% | 1002 hPa | - | - | - | - |
| 1788103404 | 15° C | 61% | 1002 hPa | - | - | - | - |
| 1788102504 | 15° C | 60% | 1001.9 hPa | - | - | - | - |
| 1788101604 | 15° C | 60% | 1001.9 hPa | - | - | - | - |
| 1788100704 | 15.56° C | 60% | 1002.1 hPa | - | - | - | - |
| 1788099804 | 15.56° C | 61% | 1002.3 hPa | - | - | - | - |
| 1788098904 | 16.11° C | 61% | 1002.4 hPa | - | - | - | - |
| 1788098003 | 16.11° C | 60% | 1002.1 hPa | - | - | - | - |
| 1788097103 | 16.11° C | 60% | 1002 hPa | - | - | - | - |
| 1788096203 | 16.11° C | 59% | 1002 hPa | - | - | - | - |
| 1788095303 | 16.11° C | 59% | 1002.1 hPa | - | - | - | - |
| 1788094403 | 16.11° C | 59% | 1002.3 hPa | - | - | - | - |
| 1788093503 | 16.11° C | 60% | 1002.1 hPa | - | - | - | - |
* Rain since midnight (hover to see other rain measurements)
** Current wind speed in m/s (hover to see current wind gust speed)